Wind_Speed
31 30 29 28 27 27 26 25 24 23 22 22 23 24 24 25 27 28 29 30 31 32 34 36 37 38 39 40 41 43 44 44 45 45 46 47 47 48 48 49 49 49 48
29 30 30 29 29 28 27 26 24 24 24 24 25 26 27 28 28 30 31 32 33 34 35 37 37 38 39 40 41 41 42 42 43 43 44 45 45 46 46 46 46 45 44
30 31 31 30 29 28 26 26 26 26 26 26 27 28 28 29 30 31 32 33 34 35 36 37 37 38 39 39 39 39 40 40 40 41 42 43 43 43 43 43 42 40 40
28 28 28 27 27 26 26 26 26 26 26 27 28 28 29 30 31 31 32 33 34 34 35 36 37 37 37 37 37 37 37 37 38 38 39 39 39 39 39 37 36 35 34
26 26 26 26 26 26 26 26 26 26 26 27 28 29 29 30 30 31 32 33 33 33 34 34 35 35 35 35 35 35 35 35 35 35 35 35 35 34 33 32 31 30 30
23 24 25 25 26 26 26 26 26 27 28 28 29 29 29 30 31 31 31 31 31 32 32 32 33 33 32 32 33 33 32 32 31 31 31 30 30 29 28 28 27 26 26
23 23 24 25 25 26 26 27 27 28 28 28 28 28 29 29 30 30 30 30 30 30 30 30 30 30 30 31 31 30 29 28 27 27 26 26 25 25 25 24 23 23 23
22 22 22 23 23 23 24 25 26 25 26 26 26 27 27 28 28 28 28 28 28 28 28 28 28 28 29 28 27 27 26 25 24 24 24 23 22 22 21 21 20 20 20
19 20 20 21 21 22 23 23 24 24 24 25 25 26 26 26 26 26 26 26 26 26 26 25 26 26 25 25 24 23 23 22 22 22 21 21 20 20 19 19 18 18 18
17 18 18 18 19 20 21 22 22 23 23 24 24 24 24 24 24 24 24 24 23 23 23 23 23 23 22 21 21 20 20 20 20 19 19 19 18 17 17 16 16 17 16
15 16 17 18 18 19 20 20 21 21 22 22 22 22 21 21 21 21 21 21 21 21 21 20 20 20 20 19 19 19 18 18 18 17 17 17 16 15 15 15 15 15 15
15 16 17 17 18 19 19 20 20 20 20 20 20 20 19 19 18 18 18 18 19 19 18 18 18 17 18 17 17 17 17 16 16 16 15 15 14 13 13 13 13 13 13
14 15 15 16 17 17 18 18 19 19 18 18 18 17 17 17 16 16 17 17 16 16 16 15 15 15 15 15 15 15 15 15 14 13 13 13 12 12 11 11 12 12 12
12 12 13 14 14 15 15 16 16 16 16 16 16 16 15 15 14 15 15 14 14 14 13 13 13 13 13 13 14 14 14 13 13 12 12 11 11 11 11 10 10 10 11
11 11 12 12 12 13 13 13 14 14 14 14 14 13 13 13 13 13 12 12 12 12 12 12 12 12 12 13 13 13 13 12 11 11 11 10 10 10 9 9 9 9 9
10 11 11 11 11 12 12 11 11 11 11 11 11 11 11 11 11 11 11 11 10 11 11 11 11 11 12 12 12 12 11 11 11 10 9 9 9 9 8 8 8 8 8
8 8 9 9 9 9 9 9 9 9 9 9 9 10 10 9 9 9 9 9 9 9 10 10 10 11 11 11 11 11 10 10 9 9 8 8 8 8 7 7 7 7 7
5 6 6 6 6 6 7 7 7 7 7 7 7 7 7 7 6 6 7 7 8 8 9 9 10 10 11 11 10 10 9 9 8 8 7 7 7 6 6 6 6 6 7
3 4 4 4 4 4 5 4 5 5 5 5 5 5 4 4 4 5 5 6 6 7 8 8 9 9 10 10 9 9 8 8 7 6 6 6 5 5 4 5 5 6 6
1 1 2 2 2 2 2 2 2 2 3 3 3 3 2 2 3 3 4 4 5 6 7 7 8 9 9 8 8 8 7 6 6 5 5 4 4 4 3 4 5 5 6
2 2 2 2 2 1 1 1 1 2 2 2 2 1 1 1 1 2 3 4 4 6 7 7 8 8 8 8 7 7 6 5 5 4 3 3 3 3 4 4 5 6 6
5 4 4 4 4 3 3 3 3 3 3 2 2 1 1 1 1 2 3 4 5 6 7 7 8 8 8 7 7 6 5 5 4 3 3 4 4 4 5 5 6 7 7
6 6 6 5 5 5 5 5 5 4 4 3 3 3 3 3 2 3 3 4 5 6 7 8 8 8 8 7 7 6 6 5 5 5 5 5 6 6 7 7 8 8 8
9 8 8 8 7 7 7 7 6 6 5 5 4 4 4 4 4 4 5 6 6 7 8 8 8 9 9 8 8 7 7 7 7 7 7 8 8 8 8 9 9 9 9
12 11 11 10 10 9 9 8 8 8 7 7 7 6 6 6 6 6 6 7 7 8 8 9 9 9 10 10 9 9 9 8 8 9 9 9 9 10 10 10 10 9 9
15 14 13 13 12 11 11 10 10 9 9 9 8 8 8 8 7 8 8 8 8 9 9 9 10 10 10 11 11 10 10 10 10 10 10 10 10 10 10 9 9 8 8
Wind_Direction
245 248 252 255 258 257 252 254 255 255 252 251 252 255 259 262 264 264 266 269 272 274 276 278 280 281 283 284 285 285 286 286 286 287 288 289 289 290 291 292 293 294 294
244 247 249 251 255 255 252 251 252 252 252 251 252 255 260 263 266 267 269 272 275 276 278 280 282 283 285 285 286 286 287 287 287 289 290 290 291 293 294 295 296 296 296
245 247 248 249 250 250 248 248 250 251 253 255 256 258 261 265 268 269 272 274 276 278 280 282 283 285 286 286 286 287 288 288 289 291 292 293 294 295 296 297 297 296 296
242 243 245 246 246 246 248 249 250 254 255 256 259 262 264 266 268 271 274 276 279 281 282 284 284 285 286 287 288 289 290 291 293 294 294 296 297 297 298 299 298 298 298
240 242 243 243 244 247 250 250 252 255 256 258 262 264 265 268 271 274 277 279 281 283 284 284 285 285 287 288 289 291 293 294 295 296 297 298 299 300 301 302 302 303 303
241 240 241 244 246 249 250 251 253 257 259 262 265 266 268 271 273 276 278 281 282 284 284 285 286 287 289 291 291 293 295 296 298 300 301 302 303 303 304 305 306 306 307
241 242 246 247 249 252 252 253 255 258 261 264 266 268 270 273 275 277 279 281 283 285 286 287 288 289 291 292 294 296 297 299 300 303 304 305 306 307 308 308 309 310 313
245 246 247 250 252 254 255 257 258 259 262 265 267 270 272 274 276 277 280 281 284 285 287 288 290 292 294 295 296 297 298 299 301 304 305 306 308 310 312 312 313 315 318
246 249 251 252 254 256 258 259 260 261 264 267 269 271 273 274 276 277 279 282 283 286 288 290 292 294 295 296 297 298 299 300 302 304 306 307 309 312 313 314 316 319 322
249 250 252 253 255 257 259 261 263 265 267 269 271 272 273 274 275 277 280 282 285 288 290 292 294 296 297 297 297 298 300 302 303 305 306 308 309 311 314 316 317 320 324
253 255 257 259 260 263 264 265 265 267 268 268 270 271 272 274 276 279 281 284 287 289 291 293 295 297 297 297 298 299 301 304 306 306 307 308 309 311 314 316 319 320 324
259 260 260 262 263 264 264 266 267 267 268 269 269 270 271 273 276 279 283 286 288 290 293 295 297 298 298 299 301 303 305 307 308 308 308 310 312 313 315 318 322 323 327
263 262 262 263 264 264 266 267 268 268 268 268 267 268 270 273 276 280 284 287 290 292 295 297 299 300 301 303 305 306 307 308 309 309 310 312 315 316 318 322 326 329 332
265 266 267 267 267 268 269 270 270 269 268 266 265 266 269 271 275 279 282 286 290 294 297 300 301 303 304 305 307 308 309 310 312 313 314 316 319 321 323 325 329 334 337
264 266 268 270 271 273 274 274 272 269 268 265 263 264 265 269 273 278 283 287 291 295 299 303 305 304 305 307 308 309 310 312 315 316 318 321 324 326 328 330 334 339 344
264 267 270 272 274 274 274 273 272 269 266 264 260 261 265 269 273 278 282 285 291 296 301 305 306 307 308 309 310 311 312 313 315 317 320 325 329 330 332 337 342 347 351
264 266 269 272 274 275 274 273 270 265 262 260 259 262 267 270 274 278 283 288 293 300 305 308 310 312 314 314 314 315 315 316 317 319 323 327 331 334 338 344 350 356 360
261 264 269 273 276 278 277 273 269 262 258 257 258 260 264 267 271 279 286 293 300 306 310 313 315 316 317 317 318 318 318 319 319 321 324 329 334 339 345 353 0 5 11
272 272 275 280 286 286 278 272 265 255 248 246 246 249 256 263 274 283 292 300 309 315 319 321 322 324 324 324 323 323 322 323 323 324 328 334 343 351 360 8 15 21 26
343 316 303 303 306 297 280 265 251 234 218 218 224 235 252 271 282 292 304 315 324 329 331 333 333 333 333 332 332 331 330 330 331 333 339 349 1 13 25 30 34 39 44
52 48 39 36 43 51 74 143 157 162 166 179 187 199 255 292 312 327 336 341 345 345 345 345 344 344 343 343 342 342 342 342 344 351 3 18 33 50 56 56 57 59 61
68 68 70 69 71 75 84 96 108 116 124 127 127 108 73 44 27 16 8 3 0 359 359 359 359 358 358 359 360 1 4 10 22 37 49 56 66 74 75 74 73 75 75
72 73 72 71 72 75 82 90 96 99 103 101 95 84 74 68 61 42 29 22 18 16 15 15 15 15 16 18 21 26 34 43 53 63 71 75 81 85 85 84 83 82 79
73 74 75 75 77 79 82 86 89 90 90 89 87 82 79 74 67 57 48 38 33 31 30 30 31 32 33 35 39 45 51 59 68 75 79 83 87 89 89 87 86 84 80
73 74 75 77 77 78 80 82 83 84 84 83 83 82 79 75 70 64 56 49 45 43 42 42 43 43 44 46 50 55 61 67 74 80 85 88 89 90 89 88 86 83 78
72 72 73 74 75 76 77 79 80 81 81 82 82 82 80 76 72 67 61 56 53 51 50 51 51 51 51 53 57 61 65 71 76 82 86 88 88 88 87 85 80 74 66
Height
5774 5776 5778 5780 5781 5782 5783 5785 5786 5787 5787 5788 5789 5789 5789 5789 5789 5788 5788 5787 5786 5785 5784 5782 5780 5778 5775 5773 5770 5766 5763 5759 5756 5752 5748 5744 5740 5736 5731 5727 5722 5717 5713
5768 5770 5771 5773 5775 5776 5777 5779 5780 5781 5781 5782 5782 5783 5783 5782 5782 5781 5780 5779 5778 5777 5775 5773 5771 5768 5766 5763 5759 5756 5752 5749 5745 5741 5737 5733 5729 5725 5720 5716 5711 5706 5701
5761 5763 5765 5767 5768 5769 5771 5772 5773 5774 5775 5775 5776 5776 5776 5775 5774 5774 5773 5771 5770 5768 5766 5764 5761 5758 5756 5753 5749 5746 5742 5739 5735 5731 5727 5723 5719 5714 5710 5706 5701 5696 5692
5754 5756 5758 5760 5761 5762 5764 5765 5766 5767 5768 5768 5768 5768 5768 5767 5767 5765 5764 5763 5761 5759 5757 5754 5752 5749 5746 5743 5740 5736 5733 5729 5726 5722 5718 5713 5709 5705 5701 5697 5692 5688 5683
5748 5750 5751 5753 5754 5755 5757 5758 5759 5760 5760 5761 5761 5760 5760 5759 5758 5757 5756 5754 5752 5750 5748 5745 5742 5740 5737 5734 5731 5728 5724 5721 5717 5713 5709 5705 5701 5697 5693 5688 5684 5680 5676
5742 5743 5745 5746 5748 5749 5750 5751 5752 5752 5753 5753 5752 5752 5752 5751 5750 5749 5747 5745 5743 5741 5739 5736 5734 5731 5728 5725 5722 5719 5716 5713 5709 5705 5702 5698 5694 5690 5686 5682 5678 5675 5671
5736 5737 5739 5740 5741 5742 5743 5744 5744 5745 5745 5744 5744 5744 5743 5742 5741 5740 5739 5737 5735 5733 5731 5728 5725 5723 5720 5717 5714 5711 5709 5705 5702 5699 5695 5691 5688 5684 5681 5677 5673 5669 5665
5730 5731 5732 5734 5734 5735 5736 5736 5737 5737 5737 5737 5736 5736 5735 5734 5733 5732 5731 5729 5727 5725 5723 5720 5718 5715 5713 5710 5707 5705 5702 5699 5696 5692 5689 5686 5683 5679 5676 5672 5669 5665 5662
5724 5726 5726 5727 5728 5729 5729 5730 5730 5730 5730 5729 5729 5729 5728 5727 5726 5725 5724 5722 5720 5718 5716 5713 5711 5709 5706 5704 5701 5698 5696 5693 5690 5687 5684 5681 5678 5675 5672 5668 5665 5662 5659
5720 5721 5721 5722 5723 5723 5723 5723 5723 5723 5723 5723 5722 5722 5721 5720 5719 5718 5717 5716 5714 5712 5710 5707 5705 5703 5700 5698 5695 5693 5690 5688 5685 5682 5679 5677 5674 5671 5668 5665 5662 5659 5656
5715 5716 5716 5717 5717 5717 5717 5717 5717 5717 5717 5716 5716 5715 5715 5714 5713 5712 5711 5710 5708 5706 5704 5702 5700 5697 5695 5693 5690 5688 5685 5683 5680 5678 5675 5673 5670 5668 5665 5662 5659 5657 5654
5711 5711 5711 5712 5712 5712 5712 5711 5711 5711 5710 5710 5710 5709 5709 5708 5707 5706 5706 5704 5702 5701 5699 5697 5695 5692 5690 5688 5686 5683 5681 5679 5676 5674 5672 5669 5667 5664 5662 5660 5657 5654 5651
5706 5706 5706 5706 5706 5706 5706 5706 5705 5705 5704 5704 5704 5704 5703 5703 5702 5701 5701 5699 5698 5696 5694 5692 5690 5688 5686 5684 5681 5679 5677 5675 5673 5670 5668 5666 5664 5662 5659 5657 5655 5652 5649
5702 5702 5702 5702 5701 5701 5701 5700 5700 5699 5699 5699 5699 5699 5698 5698 5698 5697 5696 5695 5694 5692 5690 5688 5686 5684 5682 5680 5678 5676 5674 5672 5669 5667 5665 5663 5661 5659 5657 5655 5653 5650 5648
5698 5698 5698 5697 5697 5697 5696 5696 5695 5694 5694 5694 5694 5694 5694 5694 5694 5693 5692 5691 5690 5688 5686 5685 5683 5681 5679 5677 5675 5673 5671 5669 5667 5665 5663 5661 5659 5657 5655 5653 5651 5649 5647
5694 5694 5694 5694 5693 5692 5692 5691 5690 5690 5690 5690 5690 5691 5691 5691 5690 5690 5689 5688 5687 5685 5683 5682 5680 5678 5676 5674 5672 5670 5668 5666 5664 5663 5661 5659 5657 5655 5653 5652 5650 5648 5646
5691 5691 5690 5690 5690 5689 5688 5688 5688 5687 5687 5687 5687 5688 5688 5688 5687 5687 5686 5685 5684 5682 5681 5679 5677 5675 5673 5671 5669 5667 5665 5664 5662 5660 5659 5657 5656 5654 5652 5651 5649 5647 5645
5688 5688 5688 5687 5687 5686 5686 5685 5685 5685 5685 5685 5685 5685 5685 5685 5685 5684 5684 5683 5682 5680 5678 5677 5675 5673 5671 5669 5667 5665 5663 5661 5660 5658 5657 5656 5654 5653 5651 5650 5649 5647 5645
5686 5686 5685 5685 5685 5684 5683 5683 5683 5682 5683 5683 5683 5683 5683 5683 5683 5683 5682 5681 5680 5678 5677 5675 5673 5671 5669 5667 5665 5663 5661 5660 5658 5657 5656 5654 5653 5652 5651 5650 5648 5647 5646
5685 5685 5684 5684 5683 5683 5682 5682 5682 5682 5682 5682 5682 5683 5683 5682 5682 5682 5681 5680 5678 5677 5675 5673 5671 5669 5667 5665 5663 5661 5660 5658 5657 5656 5655 5654 5653 5652 5651 5650 5649 5648 5647
5685 5684 5684 5683 5683 5682 5682 5682 5682 5682 5682 5682 5682 5682 5682 5682 5681 5681 5680 5679 5678 5676 5674 5672 5670 5668 5666 5664 5662 5660 5659 5657 5656 5655 5654 5653 5652 5652 5651 5650 5650 5649 5648
5685 5685 5684 5684 5683 5683 5682 5682 5682 5682 5682 5682 5682 5682 5682 5682 5681 5681 5680 5679 5677 5676 5674 5672 5670 5668 5665 5663 5661 5660 5658 5657 5656 5655 5654 5654 5653 5652 5652 5651 5651 5650 5650
5687 5686 5686 5685 5685 5684 5684 5683 5683 5683 5683 5683 5683 5683 5683 5682 5682 5681 5680 5679 5678 5676 5674 5672 5670 5668 5666 5664 5662 5660 5659 5658 5657 5656 5655 5654 5654 5654 5653 5653 5653 5652 5652
5689 5688 5688 5687 5687 5686 5686 5685 5685 5685 5685 5684 5684 5684 5683 5683 5682 5682 5681 5680 5678 5677 5675 5673 5671 5669 5667 5665 5663 5662 5660 5659 5658 5657 5657 5656 5656 5656 5655 5655 5655 5654 5654
5692 5691 5690 5690 5689 5688 5688 5688 5687 5687 5686 5686 5686 5685 5685 5684 5684 5683 5682 5681 5679 5678 5676 5674 5673 5671 5669 5667 5665 5664 5662 5661 5660 5660 5659 5659 5658 5658 5658 5657 5657 5657 5656
5695 5695 5694 5693 5692 5692 5691 5690 5690 5689 5689 5688 5688 5687 5687 5686 5686 5685 5684 5683 5681 5680 5678 5677 5675 5673 5672 5670 5668 5667 5666 5665 5664 5663 5662 5662 5661 5661 5661 5660 5660 5659 5658